Weather in Pletenyi Tashlyk

Ukraine / Kirovohrad Region     48°29′04″N   31°40′12″E
temp.,
°C
wind,
m/s
gust,
m/s
humid.,
%
clouds,
%
prec.,
mm/h
press.,
hPa
HPBL,
m
18 august, thu
thu1800:00+19sse2386100 0.3 100939
03:00+19nnw0086100 0.4 100911
06:00+18ne228880 0.0 100912
09:00+23ene117145 0.0 1009312
12:00+25ne326099 0.0 1010682
15:00+27ne234760 0.0 10091001
18:00+29nne24439 0.0 10091451
21:00+23n22513 0.0 100913
19 august, fri
fri1900:00+21n46560 0.0 101091
03:00+20nne37650 0.0 1009105
06:00+19n45700 0.0 101088
09:00+24nne56560 0.0 1010411
12:00+29nne55410 0.0 10101208
15:00+30ne54380 0.0 10101910
18:00+29nne44410 0.0 10101794
21:00+24nne33570 0.0 101142
20 august, sat
sat2000:00+21nne511670 0.0 1011275
03:00+19nne22760 0.0 101231
06:00+19n47820 0.0 1012131
09:00+23ne45695 0.0 1012460
12:00+29ne43450 0.0 10121422
15:00+31e323686 0.0 10112727
18:00+27ne464672 0.0 1011168
21:00+24ne366212 0.1 1011117
21 august, sun
sun2100:00+22e35700 0.0 101195
03:00+21e35761 0.1 101182
06:00+20e35765 0.0 101190
09:00+24ese346485 0.6 1011410
12:00+29ese444713 0.0 10111451
15:00+30ese654293 0.1 10092228
18:00+29e784282 0.0 10091562
21:00+23ene4554100 0.6 101073
22 august, mon
mon2200:00+21e45614 0.1 101085
03:00+20e47572 0.1 1010111
06:00+18e411495 0.0 1010204
09:00+24ese693460 0.0 1010567
12:00+28e67295 0.0 10101334
15:00+30e66275 0.0 10101754
18:00+29e55289 0.0 10101730
21:00+24ene33443 0.0 101034